TimeEST,TemperatureF,Dew PointF,Humidity,Sea Level PressureIn,VisibilityMPH,Wind Direction,Wind SpeedMPH,Gust SpeedMPH,PrecipitationIn,Events,Conditions,WindDirDegrees,DateUTC
12:51 AM,55.0,42.1,62,29.78,10.0,SSE,20.7,28.8,N/A,,Overcast,160,2013-12-05 05:51:00
1:51 AM,55.9,43.0,62,29.75,10.0,South,19.6,28.8,N/A,,Overcast,170,2013-12-05 06:51:00
2:51 AM,55.0,44.1,67,29.76,10.0,South,18.4,25.3,N/A,,Mostly Cloudy,180,2013-12-05 07:51:00
3:51 AM,55.9,45.0,67,29.74,10.0,South,19.6,27.6,N/A,,Partly Cloudy,170,2013-12-05 08:51:00
4:51 AM,55.9,46.0,69,29.76,10.0,South,13.8,-,N/A,,Overcast,180,2013-12-05 09:51:00
5:51 AM,60.1,50.0,69,29.74,10.0,South,19.6,27.6,N/A,,Clear,180,2013-12-05 10:51:00
6:51 AM,61.0,51.1,70,29.76,10.0,South,12.7,24.2,N/A,,Overcast,180,2013-12-05 11:51:00
7:51 AM,61.0,51.1,70,29.78,10.0,South,13.8,21.9,N/A,,Overcast,190,2013-12-05 12:51:00
8:51 AM,62.1,52.0,70,29.77,10.0,South,20.7,26.5,N/A,,Mostly Cloudy,190,2013-12-05 13:51:00
9:51 AM,63.0,53.1,70,29.79,10.0,SSW,15.0,-,N/A,,Overcast,210,2013-12-05 14:51:00
10:48 AM,59.0,51.8,77,29.81,9.0,West,15.0,27.6,N/A,,Overcast,270,2013-12-05 15:48:00
10:51 AM,57.9,51.1,78,29.81,8.0,West,17.3,27.6,N/A,,Overcast,260,2013-12-05 15:51:00
11:30 AM,53.6,46.4,77,29.81,7.0,West,20.7,33.4,N/A,,Mostly Cloudy,260,2013-12-05 16:30:00
11:51 AM,53.1,46.0,77,29.81,6.0,West,20.7,29.9,N/A,,Haze,260,2013-12-05 16:51:00
12:40 PM,48.2,42.8,82,29.83,7.0,West,17.3,28.8,N/A,,Overcast,260,2013-12-05 17:40:00
12:51 PM,48.0,41.0,77,29.84,7.0,West,17.3,29.9,N/A,,Overcast,260,2013-12-05 17:51:00
1:51 PM,45.0,39.0,80,29.86,7.0,West,15.0,27.6,N/A,,Overcast,260,2013-12-05 18:51:00
2:51 PM,43.0,35.1,74,29.89,10.0,WSW,12.7,27.6,N/A,,Overcast,250,2013-12-05 19:51:00
3:46 PM,42.8,35.6,76,29.92,10.0,WSW,10.4,19.6,N/A,,Overcast,250,2013-12-05 20:46:00
3:51 PM,42.1,34.0,73,29.93,10.0,West,11.5,18.4,N/A,,Overcast,260,2013-12-05 20:51:00
4:51 PM,42.1,35.1,76,29.96,10.0,West,13.8,20.7,N/A,,Overcast,260,2013-12-05 21:51:00
5:51 PM,41.0,34.0,76,29.98,10.0,West,11.5,-,0.00,,Mostly Cloudy,260,2013-12-05 22:51:00
6:04 PM,41.0,33.8,76,29.98,9.0,WSW,9.2,18.4,N/A,,Mostly Cloudy,250,2013-12-05 23:04:00
6:12 PM,41.0,33.8,76,29.99,10.0,WSW,9.2,17.3,N/A,,Mostly Cloudy,250,2013-12-05 23:12:00
6:51 PM,41.0,33.1,73,30.03,10.0,West,15.0,19.6,N/A,,Mostly Cloudy,260,2013-12-05 23:51:00
7:24 PM,41.0,33.8,76,30.02,10.0,West,12.7,18.4,N/A,,Mostly Cloudy,260,2013-12-06 00:24:00
7:51 PM,39.9,33.1,77,30.01,10.0,WSW,8.1,-,N/A,,Scattered Clouds,250,2013-12-06 00:51:00
8:05 PM,39.2,33.8,81,30.01,10.0,West,8.1,-,N/A,,Mostly Cloudy,260,2013-12-06 01:05:00
8:51 PM,39.9,32.0,73,30.04,10.0,West,9.2,-,N/A,,Overcast,260,2013-12-06 01:51:00
9:51 PM,39.0,32.0,76,30.05,10.0,West,10.4,-,0.00,Rain,Light Rain,270,2013-12-06 02:51:00
10:33 PM,39.2,30.2,70,30.04,9.0,West,6.9,-,0.00,Rain,Light Rain,260,2013-12-06 03:33:00
10:51 PM,37.9,32.0,79,30.06,10.0,West,5.8,-,0.01,Rain,Light Rain,260,2013-12-06 03:51:00
11:06 PM,37.4,30.2,75,30.07,9.0,West,11.5,-,0.01,Rain,Light Rain,280,2013-12-06 04:06:00
11:34 PM,33.8,30.2,87,30.08,2.5,West,10.4,18.4,0.03,Snow,Light Snow,270,2013-12-06 04:34:00
11:41 PM,33.8,30.2,87,30.08,1.5,West,9.2,-,0.04,Snow,Light Snow,260,2013-12-06 04:41:00
11:51 PM,33.1,30.9,92,30.09,1.2,West,6.9,-,0.06,Snow,Light Snow,260,2013-12-06 04:51:00